Timeline UpdatesTrip UpdatesNews PostsPvt PostsTravel TipsAdmin PostsConv PostsFollowed PostsChat RequestsBlog PostsPNR Posts

Disclaimer
Search
 
 
Fri Sep 19, 2014 09:18:59 ISTHomeTrainsΣChainsAtlasPNRForumGalleryNewsFAQTripsMembersLoginFeedback
No Recent News for this Train
Other Trains in the News **new
Latest...
⇐ Return Journey: Train# 59207

59208/Okha - Bhavnagar Passenger

Time-Table HAS CHANGED.
Sep 06 (10:24PM)
Change Departure Station:
Change Arrival Station:
Post a Train Travel TipPost a Train Travel Tip **new
Post a Comment/Question/Picture/VideoPost a Comment/Question/Picture/Video
Pantry/Catering
✕ NO Pantry Car
✕ NO Catering
RSA - Rake Sharing
59267/59268 Bhavnagar-Palitana Passenger
Rake/Coach Composition
Eng.. GEN..GEN..GEN..S2..S1..GEN..GEN..GEN..SLR
Loco
RTM WDM 3A.
News    PNR    Forum    Time-Table    Availability    Fare Chart    Map    Arr/Dep History    Trips    Gallery    ΣChains    X/O    Timeline    
Travel Time: 11h 13m    40 halts    Distance: 370 km    Avg Speed: 32 km/hr
Type: Passenger
Zone: WR/Western
Departs @ 18:37
Platform# 1
SMTWTFS
Jamnagar/JAM 
Arrives @ 05:50 +1 night
Platform# 1
SMTWTFS
Bhavnagar Terminus/BVC 

40 halts. 49 intermediate Stations between Jamnagar and Bhavnagar Terminus

Show ALL intermediate Stations  Show Old Time-Table

#CodeStation NameX/OArrivesAvgDepartsAvgHaltPFDay#KmSpeedElevZoneAddress
1OKHAOkha (3)  -14:45-11-167.0715mWROkha, Gujarat
2MTHPMithapur  14:54 14:53-14:55-1 2m--1-157.5253mWRJamnagar, Gujarat
3BMRNBhimranaX  15:02-15:03-1m--1-154.6376mWRBhimrana, Gujarat
4VVAVarvala  15:22 15:21-15:23-1 2m--1-143.46014mWRJamnagar, Gujarat
5DWKDwarka (2)X  15:28-15:30-2m21-138.41714mWRDwarka, Gujarat
6GRJAGorinja  15:45 15:44-15:46-1 2m--1-134.5635mWRKhambhalia-Dwarka (SH 6), Gujarat
7OKDOkha MadhiX  16:04 16:03-16:05-1 2m--1-116.5305mWRNH 8E, Gujarat
8KRGAKuranga  16:23 16:22-16:24-1 2m--1-108.27712mWRJamnagar, Gujarat
9BHTABhatiya  16:34 16:33-16:35-1 2m--1-96.65034mWRNational Highway 8E, Gujarat
10BPKABhopalka  16:48 16:47-16:49-1 2m--1-86.67746mWRJamnagar, Gujarat
11BHTLBhatel  17:01 17:00-17:02-1 2m--1-72.56535mWRJamnagar, Gujarat
12VQDViramdad  17:13 17:12-17:14-1 2m--1-61.74949mWRKhambhalia-Dwarka (SH 6), Gujarat
13KMBLKhambhalia  17:23-17:25-2m11-54.36749mWRKhambhalia, Gujarat
14SYQSinhanX  17:33 17:32-17:34-1 2m--1-46.66250mWRSH 6, Gujarat
15MDPRModpur  17:44 17:43-17:45-1 2m--1-37.25947mWRKhambhalia-Lalpur, Gujarat
16KNLSKanalus JunctionX  17:57 17:56-17:58-1 2m--1-26.54436mWRJamnagar, Gujarat
17PPLIPipli  18:06 18:05-18:07-1 2m--1-21.35730mWRJamnagar, Gujarat
18LKBLLakhabawal  18:18 18:17-18:19-1 2m--1-11.85521mWRJamnagar, Gujarat
19JAMJamnagar (2)»  18:32-18:37-5m110.04314mWRJamnagar, Gujarat
20HAPAHapa (3)  18:49-18:54-5m318.75916mWRJamnagar, Gujarat
21ALBAlia Bada  19:05 19:04-19:06-1 2m--118.66427mWRJamnagar, Gujarat
22WTJJam Wanthali  19:18 19:17-19:19-1 2m--130.33852mWRRanuja Village Rd, Gujarat
23JALDJaliya DevaniX  19:31-19:33-2m--137.93650mWRRanuja Village Rd, Gujarat
24HMHadmatiya Junction  19:47 19:46-19:48-1 2m--145.84870mWRHadmatiya Junction Railway Station, Gujarat
25CXChanolX  19:57-19:59-2m--152.93489mWRState Highway 25, Gujarat
26PDHPadadhari  20:12 20:11-20:13-1 2m--159.86571mWRPaddhari, Gujarat
27KHDIKhanderi  20:27 20:26-20:28-1 2m--173.730111mWRRajkot, Gujarat
28RJTRajkot Junction (5)X  20:50-21:00-10m1184.636128mWRRajkot, Gujarat
29KHCKhorana  21:19 21:18-21:20-1 2m--195.379131mWRState Highway 113, Gujarat
30SDDSindhawadarX  21:35 21:34-21:36-1 2m--1113.840105mWRSindhavadar, Gujarat
31WKRCWankaner City  21:52-21:53-1m--1124.41380mWRWankaner, Gujarat
32WKRWankaner Junction (4)X  22:02-22:04 22:12-2 10m--1126.35387mWRWankaner, Gujarat
33DLDaladi  22:27 22:26-22:28-1 2m--1138.742115mWRDaladi, Gujarat
34THANThan Junction (3)X  22:48-22:50-2m11152.952138mWRThangadh, Gujarat
35VDVagdiya  23:03 23:02-23:04-1 2m--1163.255149mWRState Highway 113, Gujarat
36RARamparda  23:12 23:11-23:13-1 2m--1169.761141mWRSurendranagar, Gujarat
37MOLMuli RoadX  23:22-23:24-2m11178.940108mWRSurendranagar, Gujarat
38DXRDigsar  23:37 23:36-23:38-1 2m--1186.98100mWRState Highway 17, Gujarat
39SUNRSurendranagar Junction (4)X  01:15-01:55-40m32200.64372mWRSurendra Nagar, Gujarat
40SRGTSurendranagar Gate (1)  02:01 01:58-02:02 02:00-1 2m12202.84271mWRSurendranagar, Gujarat
41JVNJorawarnagar Junction (1)  02:06 02:04-02:07 02:06-1 2m12205.54369mWRSurendra Nagar, Gujarat
42WCWadhwan City  02:13 02:11-02:14 02:13-1 2m--2209.18167mWRSurendranagar, Gujarat
43LMLimbdi (1)  02:30 02:28-02:31 02:30-1 2m12229.46751mWRLimbdi, Gujarat
44CDAChuda  02:41 02:39-02:42 02:41-1 2m--2239.47563mWRState Highway 38, Gujarat
45RURRanpur  02:56 02:54-02:57 02:56-1 2m--2255.77261mWRRanpur, Gujarat
46KDIKundli  03:07 03:05-03:08 03:07-1 2m--2266.55786mWRState Highway 38, Gujarat
47BTDBotad Junction (5)  03:20 03:19-03:22 03:21-2m--2277.97496mWRBotad, Gujarat
48LTDLathidad  03:32 03:30-03:33 03:32-1 2m--2289.07568mWRTajpar Rd, Gujarat
49NGANingala Junction  03:41 03:38-03:42 03:40-1 2m--2296.57557mWRState Highway 117, Gujarat
50ALMRAlampur  03:49 03:46-03:50 03:48-1 2m--2304.05059mWRState Highway 31, Gujarat
51UJUjalvav  03:58 03:56-03:59 03:58-1 2m--2310.75164mWRState Highway 31, Gujarat
52DLJDhola Junction  04:11 04:10-04:12 04:11-1m--2320.89437mWRDhola, Gujarat
53SOASanosra  04:20 04:18-04:21 04:20-1 2m--2331.96436mWRState Highway 25, Gujarat
54BJUDBajud  04:26 04:24-04:27 04:26-1 2m--2336.26137mWRState Highway 31, Gujarat
55SGDSongadh (1)X  04:33 04:32-04:34-1 2m12342.33740mWRBhavnagar, Gujarat
56SOJNSihor Gujarat  04:49 04:46-04:50 04:48-1 2m--2349.75342mWRShihor, Gujarat
57KDMRKodiyar Mandir  04:57 04:54-04:58 04:56-1 2m12355.02192mWRSH 21, Gujarat
58VTJVartejX  05:12 05:11-05:13-1 2m--2360.23124mWRBhavnagar, Gujarat
59BVPBhavnagar Para  05:28 05:27-05:29-1 2m--2367.5813mWRBhavnagar, Gujarat
60BVCBhavnagar Terminus (2)•  05:50--12370.2-11mWRBhavnagar, Gujarat
Scroll to Top
Scroll to Bottom